CAPE
1423 1720 1352 669 45 425 153 222 382 333 366 345 99 407 386 793 432 644 796 656 820 956 1150 1381 1744 1813 1765 1776 1766 1858 2030 1907 1826 2025 2080 1788 1609 1650 2050 1986 1654 2077 2104 2017 2110 1827 1990 1715 1862
1674 1514 1134 461 108 13 145 708 589 602 537 369 462 718 927 1198 1214 884 676 704 878 966 1132 1370 1746 1855 1818 1701 1643 1829 1949 2012 2004 1818 1497 1543 1924 2200 2036 1849 1704 1792 1869 1930 1750 1765 1719 1599 1591
1224 782 413 47 4 31 137 461 562 726 651 439 762 756 970 1114 872 695 724 772 803 1012 1226 1553 1555 1657 1848 1767 1731 1821 1766 1672 1588 1535 1441 2015 1829 1641 1381 1687 1688 1740 1810 1833 1714 1504 1696 1654 1656
597 337 201 226 88 198 561 558 700 851 842 637 831 898 564 628 637 767 691 653 642 892 1251 1442 1325 1264 1616 1723 1668 1696 1617 1608 1669 1277 1189 1730 1285 1712 1984 1664 1769 1783 1815 1874 1815 1728 1533 1612 1588
102 263 481 464 375 365 333 685 777 490 689 705 563 823 660 583 508 643 660 537 600 823 1272 1276 1233 1217 1355 1487 1477 1540 1510 1635 1940 1503 1616 1579 1246 1188 1363 1625 1642 1563 1689 1652 1511 1640 1543 1533 1449
160 485 368 164 198 581 653 580 716 707 678 746 621 638 776 777 655 581 633 566 683 848 981 1325 958 1138 1231 1371 1875 1450 1315 1321 1400 1920 1683 1663 1586 972 1133 1091 1045 1410 1452 1383 1317 1210 1224 1253 1163
0 450 290 222 222 442 643 860 615 619 570 513 448 645 696 672 670 586 528 628 841 1044 945 1030 873 923 1012 1460 2200 2176 1408 728 1029 1756 1935 1658 1397 1469 648 841 1107 824 1219 1154 1081 1189 1200 1265 955
7 530 372 367 313 174 641 802 994 783 778 578 525 737 392 732 584 654 640 678 861 903 959 699 594 422 484 721 2091 2189 2219 1647 1104 1173 1788 1569 1602 1512 1351 323 369 947 937 1086 1073 1043 824 942 1058
242 498 133 31 170 179 697 707 1042 995 891 762 615 704 572 592 541 702 1052 1087 900 938 733 535 381 348 492 314 1194 2119 1566 2111 2048 1014 1535 1295 1101 600 628 757 417 423 745 944 517 661 779 665 629
267 439 309 285 298 133 544 685 948 889 875 984 1040 1005 822 616 470 600 762 942 1088 794 473 393 164 323 320 119 364 1372 1713 352 1623 1258 573 631 502 524 427 30 782 1005 976 944 989 559 421 100 242
58 267 203 286 383 463 447 806 870 717 735 895 1150 1176 999 834 579 463 448 508 594 637 387 306 168 376 722 374 157 1028 1258 806 607 1259 682 510 263 250 94 126 9 159 227 515 263 531 204 209 464
3 5 89 273 434 551 540 703 839 753 781 810 1112 1210 1019 818 681 489 395 403 376 305 539 284 151 331 426 702 525 425 936 1209 433 808 933 488 173 191 234 51 11 168 223 243 516 398 251 223 468
8 6 21 60 200 505 627 669 728 939 1113 1024 1204 1204 1046 884 773 618 395 281 272 202 359 430 238 304 362 599 702 499 521 652 798 718 651 298 25 84 330 212 23 8 21 90 263 442 436 276 379
0 1 27 35 305 436 594 664 904 1137 1238 1305 1108 1083 1099 1013 859 818 615 402 371 360 332 379 647 524 310 386 809 794 641 533 409 502 208 583 80 157 168 451 372 216 61 150 402 526 423 413 358
0 2 128 211 551 627 808 634 638 949 1279 1303 1144 1013 1123 1163 1022 1043 876 703 619 680 754 668 890 883 568 433 777 980 697 447 374 486 361 779 533 283 192 212 408 588 628 614 231 222 394 415 655
0 13 94 53 423 688 702 74 470 1151 1251 1321 1198 1074 1085 1217 1266 1246 1145 991 1012 1056 1061 921 876 935 862 733 778 846 592 362 487 369 370 526 833 739 725 639 735 770 590 676 220 654 557 534 417
33 27 26 33 200 313 480 116 152 545 978 1189 1407 1223 1107 1251 1354 1422 1388 1286 1456 1461 1456 1323 1141 910 902 1019 887 957 589 541 413 338 314 474 1043 978 834 884 845 902 524 693 776 277 746 785 605
25 21 2 42 21 36 70 82 57 199 771 803 1362 1384 1311 1300 1384 1483 1515 1426 1472 1501 1629 1580 1451 1228 1138 1104 1134 912 752 573 233 247 553 595 894 720 953 939 959 1151 577 589 690 595 476 786 664
0 1 4 9 0 0 0 0 8 46 553 840 962 1411 1382 1434 1524 1509 1520 1478 1479 1473 1599 1612 1663 1497 1420 1248 1164 829 480 257 214 223 530 383 698 649 710 370 527 598 619 817 763 92 173 748 487
0 3 3 6 0 0 0 32 79 133 304 721 950 1179 1436 1459 1539 1603 1590 1532 1527 1569 1699 1661 1633 1741 1591 1338 1175 838 545 243 134 297 646 511 669 151 224 214 244 681 468 79 401 674 452 818 459
0 4 10 0 0 0 2 40 57 76 466 537 708 1000 1230 1413 1531 1681 1648 1584 1556 1542 1663 1808 1861 1791 1506 1234 1276 1143 795 317 252 176 48 269 158 410 78 111 127 623 881 109 197 722 561 802 610
0 0 0 0 0 5 16 74 26 16 0 56 363 802 1094 1286 1510 1604 1638 1671 1598 1534 1575 1768 1867 1925 1579 1357 1255 1219 668 438 204 26 32 106 73 23 25 107 134 374 430 731 902 130 122 708 739
0 0 0 0 0 0 4 25 40 19 0 52 240 463 824 1111 1264 1444 1603 1548 1548 1589 1556 1489 1738 1864 1652 1533 1345 1324 1097 644 473 361 159 49 33 9 0 0 2 252 505 490 935 350 101 577 778
0 0 0 0 1 0 17 33 44 16 0 35 86 339 547 693 920 1230 1300 1383 1472 1457 1595 1451 1335 1651 1722 1704 1650 1504 1389 1052 703 580 346 58 38 1 0 4 0 5 382 490 726 850 710 284 920
0 0 0 0 19 0 21 1 8 2 0 0 22 118 280 637 727 905 1018 1067 1203 1176 1113 1059 1055 1450 1602 1623 1567 1569 1470 1401 1207 574 230 196 98 9 1 1 18 37 230 395 526 836 233 599 761
0 0 0 2 15 25 0 0 0 0 0 0 3 31 81 165 546 790 1014 1055 1082 1052 982 1016 1135 1391 1389 1366 1405 1420 1422 1341 1266 1031 629 354 201 18 0 3 143 355 391 451 356 770 696 901 418
0 0 0 2 1 0 15 0 0 0 0 4 0 79 97 110 145 579 922 1001 1088 1247 1195 1147 1241 1409 1543 1506 1483 1423 1302 1201 1225 793 626 460 68 237 493 143 331 403 477 607 811 966 905 1015 497
0 0 0 0 0 0 0 0 0 0 0 0 8 32 101 239 202 411 731 938 1137 1220 1422 1434 1376 1597 1667 1640 1619 1473 1470 1474 1105 837 711 353 415 561 431 526 491 635 665 700 886 711 662 1028 874
0 0 0 0 0 0 0 0 0 0 0 0 0 15 168 349 415 576 825 946 1130 1285 1262 1189 1438 1671 1756 1539 1551 1603 1402 1195 1129 854 532 379 746 672 655 817 738 858 548 446 997 1040 968 721 671
0 0 0 0 0 0 0 7 0 0 0 0 0 1 298 613 566 612 926 1051 1301 1505 1534 1546 1779 1748 1646 1681 1756 1662 1414 1130 1071 1105 976 1024 961 943 1058 1096 1197 1136 1217 1208 1118 808 763 638 733
CIN
-108 -59 -66 -152 -90 -12 -15 -14 -35 -7 -4 -19 -32 -11 -3 -3 -3 -11 -65 -71 -57 -38 -23 -1 -0 -1 -7 -7 -19 -10 -5 -5 -5 -0 -0 -3 -4 -0 -1 -0 -0 -0 -0 -0 -0 -0 -0 -2 -0
-38 -41 -66 -84 -25 -32 -9 -8 -3 -8 -7 -14 -31 -19 -8 -1 -52 -93 -92 -76 -44 -31 -22 -5 -1 -2 -5 -6 -16 -0 -0 -0 -0 -1 -8 -4 -0 -0 -0 -1 -0 -0 -0 -0 -0 -0 -0 -0 -0
-54 -83 -30 -37 -55 -16 -10 -38 -36 -21 -24 -5 -1 -14 -3 -11 -72 -75 -69 -77 -40 -18 -8 -4 -3 -2 -0 -0 -2 -0 -0 -0 -1 -1 -5 -0 -0 -0 -0 -0 -0 -0 -0 -0 -0 -0 -0 -0 -0
-96 -90 -66 -5 -13 -25 -13 -19 -27 -12 -6 -8 -1 -1 -65 -73 -61 -52 -74 -75 -52 -23 -3 -13 -14 -20 -8 -5 -3 -1 -1 -1 -0 -7 -4 -3 -4 -0 -0 -0 -0 -0 -0 -0 -0 -0 -0 -0 -0
-161 -74 -1 -1 -6 -16 -28 -20 -18 -10 -2 -1 -1 -6 -48 -92 -113 -77 -58 -52 -45 -20 -7 -15 -18 -31 -21 -14 -9 -6 -4 -0 -0 -2 -3 -3 -0 -0 -0 -0 -0 -0 -0 -0 -0 -0 -0 -0 -0
-52 -47 -3 -2 -2 -9 -3 -16 -15 -8 -6 -14 -7 -31 -46 -80 -106 -71 -41 -26 -13 -7 -18 -6 -30 -24 -17 -8 -0 -7 -3 -10 -7 -1 -3 -2 -1 -3 -0 -0 -0 -0 -0 -0 -0 -0 -0 -0 -1
-4 -6 -2 -2 -1 -1 -4 -10 -7 -2 -8 -8 -22 -11 -65 -76 -81 -65 -44 -19 -8 -1 -3 -16 -26 -22 -16 -0 -0 -0 -3 -45 -14 -0 -0 -0 -1 -0 -18 -5 -0 -0 -0 -0 -0 -0 -0 -0 -0
-96 -31 -1 -2 -2 -5 -6 -4 -7 -1 -15 -39 -31 -16 -123 -81 -78 -42 -41 -32 -8 -3 -6 -17 -42 -63 -47 -18 -0 -0 -0 -0 -10 -2 -0 -1 -0 -0 -0 -24 -16 -1 -0 -0 -0 -0 -0 -0 -0
-110 -5 -3 -2 -2 -3 -14 -2 -17 -25 -31 -37 -58 -34 -89 -139 -84 -44 -12 -4 -14 -6 -10 -21 -52 -74 -51 -48 -2 -0 -1 -0 -0 -6 -0 -1 -5 -10 -3 -2 -14 -6 -0 -0 -4 -5 -2 -6 -8
-56 -2 -1 -6 -3 -4 -7 -7 -17 -13 -17 -42 -75 -70 -116 -139 -107 -57 -46 -30 -17 -33 -40 -31 -81 -46 -55 -75 -29 -0 -0 -14 -0 -0 -1 -1 -1 -1 -0 -8 -3 -1 -0 -0 -0 -1 -6 -36 -9
-64 -4 -19 -7 -10 -5 -2 -13 -13 -5 -6 -16 -46 -110 -113 -95 -87 -62 -52 -32 -22 -27 -49 -53 -70 -41 -4 -19 -42 -1 -1 -0 -1 -0 -0 -1 -0 -1 -2 -3 -7 -0 -6 -0 -5 -3 -1 -1 -16
-103 -54 -67 -18 -13 -11 -2 -9 -15 -14 -12 -23 -58 -127 -133 -119 -94 -75 -60 -37 -22 -40 -27 -50 -86 -45 -15 -1 -9 -2 -1 -3 -1 -0 -1 -0 -1 -1 -0 -18 -1 -2 -0 -1 -1 -2 -2 -1 -11
-23 -32 -37 -80 -33 -16 -12 -9 -7 -23 -46 -41 -77 -125 -126 -107 -72 -49 -42 -35 -27 -47 -29 -24 -67 -75 -43 -9 -2 -2 -1 -1 -1 -4 -1 -0 -14 -2 -1 -1 -8 -0 -44 -8 -1 -13 -2 -0 -6
-0 -15 -27 -56 -12 -9 -16 -10 -21 -28 -74 -73 -109 -112 -102 -90 -72 -53 -50 -62 -53 -37 -28 -28 -9 -28 -51 -28 -2 -2 -0 -0 -1 -1 -8 -0 -23 -8 -1 -1 -1 -1 -7 -1 -1 -1 -9 -5 -2
-0 -2 -53 -29 -10 -11 -14 -8 -11 -18 -76 -79 -87 -114 -99 -88 -78 -69 -56 -53 -42 -10 -6 -12 -6 -3 -19 -23 -2 -2 -1 -0 -4 -1 -2 -0 -1 -6 -20 -3 -2 -2 -0 -2 -12 -15 -2 -3 -1
-0 -12 -31 -6 -12 -25 -15 -3 -4 -37 -66 -74 -68 -110 -110 -92 -71 -72 -68 -60 -27 -1 -10 -24 -12 -3 -2 -4 -1 -1 -1 -1 -1 -0 -0 -2 -1 -1 -2 -3 -5 -4 -1 -1 -15 -2 -2 -1 -1
-2 -6 -3 -4 -26 -5 -14 -2 -2 -32 -36 -54 -91 -109 -104 -97 -72 -76 -74 -69 -17 -6 -2 -13 -18 -17 -3 -1 -1 -1 -1 -4 -1 -1 -0 -0 -1 -0 -0 -5 -5 -4 -2 -4 -1 -21 -0 -0 -1
-5 -3 -0 -3 -10 -21 -4 -2 -4 -5 -43 -36 -77 -96 -113 -110 -92 -73 -81 -69 -36 -34 -12 -18 -16 -20 -18 -1 -1 -1 -2 -5 -7 -2 -3 -3 -1 -1 -0 -1 -0 -0 -3 -0 -1 -4 -4 -0 -0
-0 -2 -3 -3 -0 -0 -0 -0 -13 -5 -26 -59 -49 -95 -100 -93 -72 -88 -72 -62 -48 -60 -29 -15 -17 -25 -17 -13 -11 -25 -27 -25 -30 -9 -38 -26 -6 -23 -11 -18 -10 -1 -10 -0 -1 -57 -29 -1 -5
-0 -0 -2 -6 -0 -0 -0 -15 -11 -7 -13 -23 -43 -58 -90 -74 -85 -87 -80 -71 -66 -58 -46 -46 -41 -30 -33 -22 -15 -18 -14 -33 -22 -11 -13 -29 -27 -63 -45 -27 -18 -1 -20 -69 -14 -6 -6 -3 -11
-0 -2 -2 -0 -0 -0 -8 -17 -3 -6 -20 -38 -65 -46 -65 -88 -84 -95 -101 -87 -78 -79 -68 -60 -46 -42 -70 -68 -17 -12 -27 -48 -66 -112 -147 -84 -83 -31 -85 -67 -47 -1 -8 -66 -50 -4 -9 -0 -6
-1 -0 -0 -0 -0 -2 -18 -9 -2 -11 -0 -33 -65 -62 -49 -54 -79 -92 -98 -100 -102 -104 -81 -63 -36 -37 -67 -63 -17 -24 -59 -58 -98 -124 -141 -127 -108 -78 -81 -47 -52 -16 -4 -2 -11 -70 -61 -0 -0
-0 -0 -0 -0 -0 -0 -2 -4 -5 -34 -0 -42 -49 -76 -58 -59 -48 -68 -84 -97 -113 -108 -110 -119 -81 -55 -48 -47 -48 -24 -27 -26 -39 -50 -75 -97 -119 -115 -0 -0 -72 -18 -1 -1 -0 -32 -65 -7 -1
-0 -0 -0 -0 -2 -0 -6 -7 -2 -3 -0 -37 -37 -33 -49 -52 -46 -65 -72 -88 -113 -148 -140 -129 -164 -113 -67 -45 -34 -23 -14 -15 -5 -29 -55 -62 -104 -34 -0 -28 -0 -55 -1 -1 -1 -2 -0 -30 -0
-0 -0 -0 -1 -5 -1 -20 -4 -2 -2 -0 -0 -43 -55 -53 -50 -52 -76 -92 -108 -133 -172 -195 -198 -214 -153 -94 -57 -44 -37 -25 -4 -1 -10 -37 -42 -53 -49 -56 -19 -48 -11 -0 -1 -1 -1 -19 -5 -1
-0 -0 -0 -3 -5 -3 -0 -0 -0 -0 -0 -0 -62 -71 -58 -56 -48 -55 -76 -104 -154 -194 -212 -207 -194 -169 -122 -89 -59 -36 -23 -12 -6 -5 -23 -21 -21 -80 -0 -34 -11 -0 -0 -1 -2 -3 -2 -0 -27
-0 -0 -0 -6 -1 -0 -5 -0 -0 -0 -0 -87 -0 -47 -57 -62 -66 -76 -81 -129 -168 -195 -224 -232 -193 -162 -111 -73 -53 -41 -29 -27 -12 -51 -23 -16 -104 -19 -0 -9 -0 -1 -1 -1 -1 -1 -1 -0 -20
-0 -0 -0 -0 -0 -0 -0 -0 -0 -0 -0 -0 -37 -35 -33 -52 -86 -91 -105 -145 -179 -201 -217 -230 -201 -141 -99 -61 -49 -41 -29 -20 -28 -30 -24 -53 -13 -1 -1 -0 -1 -0 -1 -1 -1 -1 -1 -0 -0
-0 -0 -0 -0 -0 -0 -0 -0 -0 -0 -0 -0 -0 -91 -25 -49 -96 -114 -127 -154 -184 -186 -195 -222 -209 -141 -89 -82 -63 -37 -38 -50 -45 -66 -95 -94 -1 -1 -0 -0 -1 -0 -11 -21 -0 -0 -0 -0 -0
-0 -0 -0 -0 -0 -0 -0 -3 -0 -0 -0 -0 -0 -46 -23 -91 -101 -133 -139 -171 -184 -201 -186 -210 -185 -137 -107 -72 -56 -54 -75 -97 -75 -61 -47 -14 -1 -1 -1 -0 -0 -0 -0 -0 -0 -1 -0 -0 -0
Wind_Speed
22 20 16 12 9 19 22 22 13 23 23 19 25 21 22 16 17 18 23 29 29 28 27 27 25 24 23 23 23 25 26 27 27 27 26 25 23 21 19 17 19 21 23 22 17 14 16 18 15
21 20 16 14 21 20 22 21 22 18 20 22 21 20 18 18 17 20 25 29 30 28 27 26 25 23 23 23 22 23 22 21 26 26 25 24 22 17 15 16 20 22 23 20 19 15 15 14 16
21 16 15 18 19 22 23 20 22 22 21 21 18 16 16 17 17 22 24 30 30 27 26 23 25 23 23 23 22 22 22 21 25 25 24 24 21 17 15 16 17 20 7 21 21 18 14 14 13
19 17 18 20 23 20 21 23 22 20 19 17 16 18 18 15 18 21 29 30 29 28 24 22 24 24 23 23 22 23 24 25 24 24 24 23 19 17 16 15 13 17 22 22 20 15 18 16 15
16 18 22 22 20 22 21 21 20 20 19 18 17 17 17 17 19 24 29 29 28 27 21 24 23 25 24 25 24 22 22 23 23 23 24 24 21 17 18 17 14 20 19 18 21 20 19 12 13
16 17 22 22 21 21 20 19 19 20 19 19 18 18 18 19 21 27 27 26 26 25 24 22 23 25 26 25 24 23 23 23 22 22 22 23 22 20 20 19 18 19 5 6 18 16 17 19 11
16 17 21 22 21 21 20 19 19 19 20 18 18 19 17 20 25 25 25 25 25 23 24 23 24 25 25 26 21 22 21 22 18 20 22 23 22 21 20 20 20 21 19 21 22 20 22 22 20
17 18 21 20 18 19 20 19 18 18 19 18 17 17 17 20 25 24 22 23 23 22 22 23 23 23 23 23 24 20 20 20 19 21 22 19 21 21 21 21 21 20 20 20 20 20 18 17 16
17 17 19 19 19 18 19 18 18 18 19 18 17 17 17 21 23 23 22 23 22 25 23 22 22 22 22 23 23 22 20 20 21 22 23 20 18 19 21 20 20 21 20 20 20 20 18 17 14
14 15 16 16 15 16 17 17 18 18 17 18 19 18 20 21 20 22 23 23 23 24 23 22 21 22 20 21 21 23 22 21 21 22 23 21 19 19 19 22 22 21 20 19 19 19 18 18 17
12 13 13 14 14 15 15 16 16 16 17 16 16 19 21 20 20 21 22 22 22 21 22 21 21 21 20 18 20 21 21 22 20 20 21 20 19 19 19 20 22 20 18 18 16 17 18 19 16
11 11 12 13 15 15 14 15 15 14 18 18 16 17 19 18 19 22 21 20 20 20 21 20 20 20 21 17 18 21 21 17 21 18 21 20 19 19 19 21 23 22 19 16 18 19 19 17 13
9 11 12 14 13 13 14 13 14 15 16 16 16 16 17 17 18 19 21 18 17 18 20 20 18 20 21 19 16 18 19 19 20 9 19 19 18 19 19 20 22 20 18 16 16 17 17 17 14
16 17 17 15 15 12 10 9 13 15 14 15 15 15 15 15 16 16 18 17 17 16 16 20 19 16 20 18 18 15 16 16 19 15 15 16 21 12 20 20 20 19 18 17 18 17 18 17 16
15 14 11 10 13 15 12 9 11 12 12 13 14 14 14 15 14 12 13 14 13 14 15 19 21 18 17 18 17 17 16 16 16 14 13 14 15 10 22 21 21 18 14 17 18 18 18 17 17
13 12 6 10 11 13 11 10 14 11 11 11 12 13 14 14 13 11 12 10 9 7 11 16 20 22 21 21 17 18 15 16 12 10 14 12 10 6 18 23 21 12 17 15 19 18 18 17 16
7 8 8 10 11 11 8 7 16 10 11 11 11 12 14 14 13 12 11 13 11 9 5 12 18 21 19 21 19 17 17 21 17 17 17 15 14 5 26 24 22 16 11 17 18 17 17 16 14
6 7 8 9 13 9 8 16 19 12 12 11 9 10 11 12 11 10 11 13 14 12 13 14 15 17 17 16 17 17 17 17 19 6 17 25 22 22 28 28 26 25 21 21 16 19 20 15 13
17 15 13 12 16 17 16 22 20 20 12 11 12 9 11 12 12 10 12 15 15 21 23 20 18 16 14 15 14 17 17 17 15 14 10 21 28 27 29 29 27 26 24 24 17 6 22 15 7
15 16 10 18 11 24 25 22 20 16 14 11 10 6 11 11 11 12 13 16 18 19 18 20 18 15 17 14 13 10 11 7 14 1 7 10 12 30 28 30 29 27 25 19 19 9 19 9 5
19 19 16 21 24 22 24 17 11 11 13 14 8 4 8 14 14 14 15 15 16 18 19 18 16 16 16 15 9 5 2 7 5 5 7 12 7 20 27 27 29 28 25 27 2 17 26 25 4
21 7 21 22 22 19 19 18 12 3 18 7 6 9 12 15 14 14 14 14 15 17 16 15 15 14 16 17 14 12 11 9 11 11 8 5 11 26 25 25 32 32 27 26 18 12 21 29 17
27 15 17 23 27 26 10 8 12 13 22 19 16 12 14 14 14 14 15 14 15 14 14 12 12 13 14 15 18 14 15 10 4 6 9 8 5 8 4 4 9 25 22 21 22 6 2 28 28
24 17 13 25 28 18 17 14 15 14 19 18 16 13 14 16 15 16 16 15 13 13 12 10 8 10 12 13 15 17 14 15 10 7 9 8 8 8 8 7 16 10 31 29 27 5 10 29 29
18 12 15 11 4 9 13 15 27 20 19 20 15 12 12 13 14 16 16 16 15 13 13 11 10 10 10 12 14 17 16 13 11 8 7 7 6 7 7 9 5 19 29 33 27 14 24 3 30
17 13 12 10 10 10 13 20 25 18 21 20 21 13 9 11 14 15 14 13 11 11 10 10 10 10 10 11 12 14 13 11 13 12 4 7 6 8 6 11 15 21 25 28 27 22 13 5 8
18 19 30 35 18 25 19 19 27 25 22 18 18 16 12 13 8 7 9 10 10 9 9 10 9 8 9 10 10 10 10 11 7 5 6 5 4 6 9 15 16 13 10 19 15 3 21 6 4
30 22 18 22 18 16 28 23 24 20 22 19 16 18 13 12 10 8 8 9 9 9 9 10 9 8 9 10 7 7 8 9 5 8 9 10 13 14 14 11 13 11 7 15 18 17 24 8 25
24 29 21 27 15 30 25 24 24 23 26 21 18 17 15 13 12 10 8 9 9 10 10 10 9 9 9 10 8 7 6 5 6 6 10 11 14 11 11 12 12 1 8 11 19 24 30 19 20
31 28 23 30 19 30 32 26 14 23 23 23 25 21 17 16 15 12 10 10 10 10 10 10 9 9 9 10 9 8 7 6 6 6 10 12 9 10 11 10 10 9 4 9 16 25 23 22 19
Wind_Direction
101 100 74 236 280 143 99 86 165 92 97 138 108 121 107 146 138 115 112 127 121 120 119 119 112 105 101 98 96 104 109 120 123 124 128 132 139 143 149 159 162 155 128 98 48 31 48 63 52
119 119 141 218 145 126 86 102 100 120 121 114 108 106 124 113 78 102 113 125 125 120 121 119 115 109 105 102 98 97 96 95 118 124 130 138 150 169 170 164 157 154 137 77 65 40 46 45 56
118 140 162 157 163 110 87 122 94 75 87 103 118 141 139 124 107 111 116 125 126 121 122 115 120 113 110 109 106 102 103 99 124 137 143 141 155 175 174 171 170 162 180 80 80 64 44 49 43
128 134 134 130 120 130 118 91 98 93 92 112 118 101 97 171 101 121 124 126 126 125 119 116 121 118 116 114 111 114 120 129 127 135 152 131 176 184 183 184 193 177 94 97 80 48 71 61 60
143 134 94 60 55 109 119 103 102 83 78 80 124 83 101 114 113 115 124 127 125 127 113 123 120 125 123 124 121 115 114 122 127 133 159 149 167 188 176 180 193 152 73 61 89 81 76 41 49
144 144 96 57 60 84 95 96 95 74 59 71 82 65 61 87 105 121 124 126 125 123 123 119 124 130 132 129 130 121 126 136 131 141 129 172 168 175 166 170 171 162 119 270 70 64 71 89 35
144 138 60 75 54 78 81 74 103 87 62 74 70 62 58 97 115 120 124 124 125 122 127 127 132 135 137 139 119 123 120 132 113 132 191 181 181 183 178 165 163 148 169 156 123 160 139 119 95
151 123 107 89 39 32 69 80 79 96 47 47 73 70 96 110 121 121 120 125 125 123 127 132 133 134 136 136 140 121 122 125 118 138 194 210 195 193 178 166 165 166 169 167 158 153 161 87 80
146 109 72 64 68 46 68 64 70 58 65 55 62 62 88 117 122 125 124 131 128 141 135 135 135 134 135 140 143 141 129 132 142 157 181 195 221 224 177 192 146 166 169 159 157 152 129 116 89
93 69 55 49 26 20 51 62 69 79 75 63 48 48 95 119 126 133 137 138 138 142 141 138 137 140 131 137 139 151 152 150 149 158 169 177 173 178 197 173 176 171 159 160 155 157 148 149 184
60 45 28 24 12 354 24 48 61 59 43 58 67 79 104 117 129 139 143 143 142 138 142 141 142 142 137 131 138 148 155 161 153 153 158 176 184 183 175 151 162 154 144 163 142 153 160 163 127
22 3 3 345 330 354 26 27 34 46 23 31 69 91 102 112 126 141 145 143 142 142 144 144 145 146 148 135 139 154 157 139 169 145 161 165 177 184 188 178 181 185 161 143 189 188 178 160 113
17 359 355 343 357 15 17 38 23 34 31 44 70 93 104 111 123 134 143 140 142 146 149 149 146 151 154 151 143 147 157 156 164 98 157 163 163 186 186 186 182 170 175 165 165 168 172 164 136
314 300 309 329 338 9 52 90 23 26 49 57 76 94 107 108 115 122 136 141 147 149 153 157 156 150 158 155 155 148 150 153 166 147 147 153 181 123 195 198 179 178 179 180 192 179 174 167 158
309 320 354 26 15 12 46 122 110 32 50 68 90 99 113 120 117 117 127 135 138 145 152 162 164 161 159 162 160 162 160 160 160 153 148 152 160 128 203 193 198 181 158 184 196 189 182 177 173
319 332 34 359 22 11 65 48 31 57 85 90 103 111 126 133 130 121 127 129 131 129 141 157 164 170 167 170 165 171 165 169 154 147 160 157 150 134 178 208 207 142 185 172 197 195 192 178 173
339 344 357 8 9 21 71 109 331 60 129 132 124 131 142 141 141 140 137 145 141 139 134 146 158 165 165 172 172 170 174 185 179 174 174 168 168 317 263 214 208 297 146 191 205 192 186 175 152
335 342 352 349 4 35 149 203 217 177 163 161 138 144 144 146 152 148 150 150 156 149 152 152 155 160 162 163 169 172 177 179 184 167 182 209 191 191 226 251 244 243 209 216 194 218 221 172 149
293 305 319 338 334 330 207 226 222 227 172 163 164 145 151 155 150 151 159 160 158 168 170 167 163 163 160 164 163 172 177 177 176 175 296 190 219 264 249 246 258 229 229 239 200 110 222 185 74
288 295 320 313 354 275 265 237 227 197 192 174 171 129 153 143 146 151 157 164 168 169 171 174 173 172 175 171 170 164 166 165 171 289 154 196 182 247 251 249 257 263 277 268 209 159 208 198 57
277 279 300 295 279 233 279 214 174 145 185 205 12 94 134 156 157 149 154 159 165 173 175 180 183 181 181 182 177 176 292 174 182 182 295 289 299 288 259 276 268 269 283 265 277 270 259 253 51
273 293 285 289 296 317 298 321 18 124 236 153 105 136 138 150 143 145 149 155 163 171 170 173 180 187 188 187 187 188 190 189 191 190 193 220 301 284 282 283 261 264 280 285 310 332 300 259 285
262 292 293 283 247 270 168 6 161 355 308 324 6 109 123 137 136 142 148 151 162 162 165 165 171 181 186 187 192 193 197 201 265 253 208 223 245 198 251 227 302 287 288 295 296 350 105 232 262
266 281 295 248 234 307 190 320 326 335 319 329 5 58 105 125 132 145 151 151 147 153 162 156 161 175 181 185 188 192 196 198 202 250 260 213 214 215 222 286 301 274 269 276 281 192 189 240 268
263 263 276 287 268 314 310 308 222 290 313 322 317 6 78 110 128 147 152 153 150 146 149 151 153 163 171 181 185 188 193 195 199 212 216 218 216 204 214 263 279 198 209 231 282 311 291 232 266
255 216 249 269 294 307 306 285 233 286 272 254 231 151 82 105 134 147 143 140 137 138 141 143 142 151 161 171 178 183 187 189 193 194 196 195 204 196 205 200 195 200 204 210 217 214 200 303 301
253 207 192 221 290 277 282 278 247 225 240 286 285 316 140 155 94 88 113 121 112 111 120 132 131 134 143 152 156 166 173 178 177 180 171 176 181 184 178 184 190 183 186 198 199 210 301 313 290
253 257 246 257 275 284 262 270 258 264 261 281 285 290 326 354 40 67 83 107 99 92 95 107 115 112 127 135 132 137 149 155 147 153 157 155 163 171 171 157 173 179 305 299 301 309 298 316 278
249 254 247 250 218 260 271 274 261 261 253 277 297 311 328 351 17 47 39 82 90 86 87 91 93 97 114 127 119 118 120 119 125 122 141 147 162 149 150 164 172 10 311 306 299 298 288 299 278
252 247 247 250 260 256 258 266 299 273 266 273 274 287 321 330 355 25 65 95 101 90 82 78 75 85 99 109 104 109 100 102 115 113 129 139 130 139 151 147 143 135 36 326 311 300 301 293 279